OPS 4682 DEB, 38427

Orbit data source: Space-Track

OPS 4682 DEB, 38427 is space debris in LEO originally from a launch on Sat, 03 Apr 1965 UTC launched from the Air Force Western Test Range (AFWTR). Debris objects in space refer to the collection of defunct objects orbiting the Earth. Examples of debris include non-operational satellites, rocket bodies, and fragments generated from explosions, collisions, or faulty payload assembly.

Loading next visibility...
Identifier
38427, 1965-027EG
Orbit
LEO
Country
Flag of USUS
Related business
Manufacturer
Unknown
Mission
Spacecraft
Bus & Motor
Unknown
Mass
Unknown
Launch date (UTC)
1965-04-03 (61 years ago)
Launch vehicle
Unknown
Launch site
Air Force Western Test Range (AFWTR)
Object type
Payload
Rocket body
Debris
Shape & HBR
Unknown shape, 0.1 m
Radar Cross Section
Small (<0.1 m²)

Expand to show TLE details & history
Last TLE update: 1 day ago

TLE from 1 day ago
0 OPS 4682 DEB
1 38427U 65027EG  26118.42807269 -.00000531  00000-0 -20173-2 0  9996
2 38427  90.2339 359.5744 0031318 314.7514  45.1056 12.91404016655320
Epoch: 2026-04-28T10:16Z
TLE epoch observation values (Epoch: 2026-04-28T10:16:25.480Z)
Latitude
0.00008°
Longitude
-10.9353°
Altitude
1,281.896 km
Speed
7.223 km/s
True Right ascension
23h 58m 17s
True Declination
0° 00' 00"
Sunlit
Object was in daylight at epoch
Visualization orbit readout
Latitude
Unknown
Longitude
Unknown
Altitude
Unknown
Speed
Unknown
Apparent Right ascension
Unknown
Apparent Declination
Unknown
Sunlit
N/A
Visualization observer readout
Local Sidereal Time
05:44:03
Azimuth
Unknown
Elevation
Unknown
Doppler factor
Unknown
Orbital elements
Apogee altitude
1,317.117 km
Perigee altitude
1,269.068 km
Semi-major axis
7,671.23 km
Eccentricity
0.00313
Inclination
90.2339°
RAAN
359.5744°
Arg. of periapsis
314.7514°
True anomaly
45.36054°
Mean anomaly
45.1056°
Eccentric anomaly
45.233°
Mean motion
3.23032 °/min
Orbital period
111.44 mins
BSTAR
-0.0020173
Loading maneuver chart data...
Computing Atmospheric mass density...
Loading historical data...
Loading historical data...
Loading historical data...
Loading historical data...
Loading historical data...
Loading historical data...
Loading historical data...

Documentation

Showing up to 5 results
|